Time,TemperatureF,DewpointF,PressureIn,WindDirection,WindDirectionDegrees,WindSpeedMPH,WindSpeedGustMPH,Humidity,HourlyPrecipIn,Conditions,Clouds,dailyrainin,SoftwareType,DateUTC
2013-02-08 00:00:00,16.1,13.2,30.18,NW,321,0.0,3.0,88,0.00,,SKC,0.00,VWS V14.01,2013-02-08 06:00:00,
2013-02-08 00:01:00,17.2,14.5,30.17,WNW,295,1.0,2.0,89,0.00,,SKC,0.00,VWS V14.01,2013-02-08 06:01:00,
2013-02-08 00:05:00,15.9,12.7,30.18,NNE,15,2.0,2.0,87,0.00,,SKC,0.00,VWS V14.01,2013-02-08 06:05:00,
2013-02-08 00:06:00,17.1,14.4,30.18,ENE,65,0.0,2.0,89,0.00,,SKC,0.00,VWS V14.01,2013-02-08 06:06:00,
2013-02-08 00:10:00,15.7,12.5,30.18,WNW,300,0.0,5.0,87,0.00,,SKC,0.00,VWS V14.01,2013-02-08 06:10:00,
2013-02-08 00:11:00,17.0,14.1,30.18,NE,56,0.0,3.0,88,0.00,,SKC,0.00,VWS V14.01,2013-02-08 06:11:00,
2013-02-08 00:15:00,15.5,12.3,30.18,NNE,26,0.0,3.0,87,0.00,,SKC,0.00,VWS V14.01,2013-02-08 06:15:00,
2013-02-08 00:16:00,16.8,13.9,30.18,ENE,65,5.0,5.0,88,0.00,,SKC,0.00,VWS V14.01,2013-02-08 06:16:00,
2013-02-08 00:20:00,15.3,12.1,30.18,WSW,245,0.0,0.0,87,0.00,,SKC,0.00,VWS V14.01,2013-02-08 06:20:00,
2013-02-08 00:21:00,16.8,13.4,30.18,ENE,71,1.0,6.0,86,0.00,,SKC,0.00,VWS V14.01,2013-02-08 06:21:00,
2013-02-08 00:25:00,15.0,11.8,30.18,NNE,15,0.0,0.0,87,0.00,,SKC,0.00,VWS V14.01,2013-02-08 06:25:00,
2013-02-08 00:26:00,16.7,13.2,30.18,ENE,61,1.0,3.0,86,0.00,,SKC,0.00,VWS V14.01,2013-02-08 06:26:00,
2013-02-08 00:30:00,14.7,11.5,30.19,North,355,5.0,5.0,87,0.00,,SKC,0.00,VWS V14.01,2013-02-08 06:30:00,
2013-02-08 00:31:00,16.6,13.1,30.18,NNW,331,1.0,4.0,86,0.00,,SKC,0.00,VWS V14.01,2013-02-08 06:31:00,
2013-02-08 00:35:00,14.4,11.2,30.19,NE,40,0.0,5.0,87,0.00,,SKC,0.00,VWS V14.01,2013-02-08 06:35:00,
2013-02-08 00:36:00,16.5,13.3,30.18,ENE,61,0.0,2.0,87,0.00,,SKC,0.00,VWS V14.01,2013-02-08 06:36:00,
2013-02-08 00:40:00,14.2,11.1,30.19,SE,142,0.0,1.0,87,0.00,,SKC,0.00,VWS V14.01,2013-02-08 06:40:00,
2013-02-08 00:41:00,16.4,13.2,30.18,NNE,15,0.0,2.0,87,0.00,,SKC,0.00,VWS V14.01,2013-02-08 06:41:00,
2013-02-08 00:45:00,14.3,11.1,30.20,NNW,334,0.0,3.0,87,0.00,,SKC,0.00,VWS V14.01,2013-02-08 06:45:00,
2013-02-08 00:46:00,16.4,13.5,30.18,NW,307,0.0,1.0,88,0.00,,SKC,0.00,VWS V14.01,2013-02-08 06:46:00,
2013-02-08 00:50:00,14.3,11.4,30.20,West,272,1.0,1.0,88,0.00,,SKC,0.00,VWS V14.01,2013-02-08 06:50:00,
2013-02-08 00:51:00,16.3,13.4,30.18,NE,51,0.0,2.0,88,0.00,,SKC,0.00,VWS V14.01,2013-02-08 06:51:00,
2013-02-08 00:55:00,14.3,11.4,30.20,SW,232,0.0,3.0,88,0.00,,SKC,0.00,VWS V14.01,2013-02-08 06:55:00,
2013-02-08 00:56:00,16.2,13.3,30.18,ENE,69,1.0,3.0,88,0.00,,SKC,0.00,VWS V14.01,2013-02-08 06:56:00,
2013-02-08 01:00:00,14.2,11.3,30.20,East,88,0.0,0.0,88,0.00,,SKC,0.00,VWS V14.01,2013-02-08 07:00:00,
2013-02-08 01:01:00,16.1,13.2,30.18,NW,314,0.0,3.0,88,0.00,,SKC,0.00,VWS V14.01,2013-02-08 07:01:00,
2013-02-08 01:05:00,14.0,10.9,30.20,North,360,0.0,4.0,87,0.00,,SKC,0.00,VWS V14.01,2013-02-08 07:05:00,
2013-02-08 01:06:00,16.0,13.1,30.18,NNE,17,0.0,2.0,88,0.00,,SKC,0.00,VWS V14.01,2013-02-08 07:06:00,
2013-02-08 01:10:00,13.7,10.6,30.20,West,271,0.0,1.0,87,0.00,,SKC,0.00,VWS V14.01,2013-02-08 07:10:00,
2013-02-08 01:11:00,15.8,12.6,30.18,ENE,75,1.0,5.0,87,0.00,,SKC,0.00,VWS V14.01,2013-02-08 07:11:00,
2013-02-08 01:15:00,13.3,10.4,30.20,NNW,335,0.0,1.0,88,0.00,,SKC,0.00,VWS V14.01,2013-02-08 07:15:00,
2013-02-08 01:16:00,15.6,12.4,30.18,NNE,15,0.0,3.0,87,0.00,,SKC,0.00,VWS V14.01,2013-02-08 07:16:00,
2013-02-08 01:20:00,13.0,10.1,30.20,NE,38,0.0,5.0,88,0.00,,SKC,0.00,VWS V14.01,2013-02-08 07:20:00,
2013-02-08 01:21:00,15.4,12.2,30.18,WSW,245,0.0,0.0,87,0.00,,SKC,0.00,VWS V14.01,2013-02-08 07:21:00,
2013-02-08 01:25:00,12.7,9.8,30.20,NNW,340,0.0,1.0,88,0.00,,SKC,0.00,VWS V14.01,2013-02-08 07:25:00,
2013-02-08 01:26:00,15.1,11.9,30.18,NNE,32,0.0,0.0,87,0.00,,SKC,0.00,VWS V14.01,2013-02-08 07:26:00,
2013-02-08 01:30:00,12.4,9.5,30.20,WNW,283,0.0,2.0,88,0.00,,SKC,0.00,VWS V14.01,2013-02-08 07:30:00,
2013-02-08 01:31:00,14.7,11.5,30.19,East,95,0.0,2.0,87,0.00,,SKC,0.00,VWS V14.01,2013-02-08 07:31:00,
2013-02-08 01:35:00,12.1,9.2,30.20,WNW,282,0.0,1.0,88,0.00,,SKC,0.00,VWS V14.01,2013-02-08 07:35:00,
2013-02-08 01:36:00,14.4,11.2,30.19,NE,40,0.0,5.0,87,0.00,,SKC,0.00,VWS V14.01,2013-02-08 07:36:00,
2013-02-08 01:40:00,11.9,9.3,30.20,West,281,0.0,2.0,89,0.00,,SKC,0.00,VWS V14.01,2013-02-08 07:40:00,
2013-02-08 01:41:00,14.2,11.1,30.19,NNE,32,0.0,1.0,87,0.00,,SKC,0.00,VWS V14.01,2013-02-08 07:41:00,
2013-02-08 01:45:00,11.7,8.8,30.19,ENE,73,0.0,0.0,88,0.00,,SKC,0.00,VWS V14.01,2013-02-08 07:45:00,
2013-02-08 01:46:00,14.3,11.1,30.20,NNW,334,0.0,3.0,87,0.00,,SKC,0.00,VWS V14.01,2013-02-08 07:46:00,
2013-02-08 01:50:00,11.6,9.0,30.19,NE,40,0.0,5.0,89,0.00,,SKC,0.00,VWS V14.01,2013-02-08 07:50:00,
2013-02-08 01:51:00,14.3,11.1,30.20,NNE,30,1.0,1.0,87,0.00,,SKC,0.00,VWS V14.01,2013-02-08 07:51:00,
2013-02-08 01:55:00,11.3,8.7,30.19,NE,40,0.0,0.0,89,0.00,,SKC,0.00,VWS V14.01,2013-02-08 07:55:00,
2013-02-08 01:56:00,14.3,11.4,30.20,NE,53,0.0,3.0,88,0.00,,SKC,0.00,VWS V14.01,2013-02-08 07:56:00,
2013-02-08 02:00:00,11.0,8.4,30.19,NNE,12,0.0,0.0,89,0.00,,SKC,0.00,VWS V14.01,2013-02-08 08:00:00,
2013-02-08 02:01:00,14.2,11.3,30.20,NE,34,0.0,0.0,88,0.00,,SKC,0.00,VWS V14.01,2013-02-08 08:01:00,
2013-02-08 02:05:00,10.8,8.2,30.19,NNW,348,0.0,0.0,89,0.00,,SKC,0.00,VWS V14.01,2013-02-08 08:05:00,
2013-02-08 02:06:00,14.0,11.1,30.20,NE,46,1.0,4.0,88,0.00,,SKC,0.00,VWS V14.01,2013-02-08 08:06:00,
2013-02-08 02:10:00,10.6,8.0,30.19,West,272,0.0,0.0,89,0.00,,SKC,0.00,VWS V14.01,2013-02-08 08:10:00,
2013-02-08 02:11:00,13.7,10.6,30.20,West,271,0.0,1.0,87,0.00,,SKC,0.00,VWS V14.01,2013-02-08 08:11:00,
2013-02-08 02:15:00,10.3,7.7,30.19,West,269,0.0,0.0,89,0.00,,SKC,0.00,VWS V14.01,2013-02-08 08:15:00,
2013-02-08 02:16:00,13.4,10.5,30.20,WSW,241,0.0,1.0,88,0.00,,SKC,0.00,VWS V14.01,2013-02-08 08:16:00,
2013-02-08 02:20:00,10.0,7.4,30.19,West,269,0.0,0.0,89,0.00,,SKC,0.00,VWS V14.01,2013-02-08 08:20:00,
2013-02-08 02:21:00,13.1,10.2,30.20,East,82,1.0,5.0,88,0.00,,SKC,0.00,VWS V14.01,2013-02-08 08:21:00,
2013-02-08 02:25:00,9.8,7.2,30.19,NNW,340,0.0,0.0,89,0.00,,SKC,0.00,VWS V14.01,2013-02-08 08:25:00,
2013-02-08 02:26:00,12.8,9.9,30.20,West,275,0.0,1.0,88,0.00,,SKC,0.00,VWS V14.01,2013-02-08 08:26:00,
2013-02-08 02:30:00,9.5,6.9,30.20,SW,214,0.0,0.0,89,0.00,,SKC,0.00,VWS V14.01,2013-02-08 08:30:00,
2013-02-08 02:31:00,12.4,9.5,30.20,NE,47,1.0,1.0,88,0.00,,SKC,0.00,VWS V14.01,2013-02-08 08:31:00,
2013-02-08 02:35:00,9.2,6.6,30.20,West,265,0.0,0.0,89,0.00,,SKC,0.00,VWS V14.01,2013-02-08 08:35:00,
2013-02-08 02:36:00,12.1,9.2,30.20,WNW,282,0.0,1.0,88,0.00,,SKC,0.00,VWS V14.01,2013-02-08 08:36:00,
2013-02-08 02:40:00,9.1,6.8,30.20,ENE,78,0.0,0.0,90,0.00,,SKC,0.00,VWS V14.01,2013-02-08 08:40:00,
2013-02-08 02:41:00,11.9,9.3,30.20,West,281,0.0,2.0,89,0.00,,SKC,0.00,VWS V14.01,2013-02-08 08:41:00,
2013-02-08 02:45:00,8.9,6.6,30.20,NNW,341,0.0,0.0,90,0.00,,SKC,0.00,VWS V14.01,2013-02-08 08:45:00,
2013-02-08 02:46:00,11.7,9.1,30.19,ENE,68,0.0,0.0,89,0.00,,SKC,0.00,VWS V14.01,2013-02-08 08:46:00,
2013-02-08 02:50:00,8.9,6.6,30.20,NNW,328,0.0,0.0,90,0.00,,SKC,0.00,VWS V14.01,2013-02-08 08:50:00,
2013-02-08 02:51:00,11.6,9.0,30.19,NE,40,0.0,5.0,89,0.00,,SKC,0.00,VWS V14.01,2013-02-08 08:51:00,
2013-02-08 02:55:00,8.8,6.5,30.20,NNW,328,0.0,0.0,90,0.00,,SKC,0.00,VWS V14.01,2013-02-08 08:55:00,
2013-02-08 02:56:00,11.4,8.8,30.19,NE,40,0.0,0.0,89,0.00,,SKC,0.00,VWS V14.01,2013-02-08 08:56:00,
2013-02-08 03:00:00,8.5,6.2,30.20,NNW,328,0.0,0.0,90,0.00,,SKC,0.00,VWS V14.01,2013-02-08 09:00:00,
2013-02-08 03:01:00,11.1,8.2,30.19,NNE,12,0.0,0.0,88,0.00,,SKC,0.00,VWS V14.01,2013-02-08 09:01:00,
2013-02-08 03:05:00,8.4,6.1,30.20,NNW,328,0.0,0.0,90,0.00,,SKC,0.00,VWS V14.01,2013-02-08 09:05:00,
2013-02-08 03:06:00,10.9,8.3,30.19,NW,308,0.0,0.0,89,0.00,,SKC,0.00,VWS V14.01,2013-02-08 09:06:00,
2013-02-08 03:10:00,8.2,5.9,30.20,NNW,329,0.0,0.0,90,0.00,,SKC,0.00,VWS V14.01,2013-02-08 09:10:00,
2013-02-08 03:11:00,10.6,8.0,30.19,West,272,0.0,0.0,89,0.00,,SKC,0.00,VWS V14.01,2013-02-08 09:11:00,
2013-02-08 03:15:00,8.0,5.7,30.20,NNW,328,0.0,0.0,90,0.00,,SKC,0.00,VWS V14.01,2013-02-08 09:15:00,
2013-02-08 03:17:00,10.3,7.7,30.19,West,269,0.0,0.0,89,0.00,,SKC,0.00,VWS V14.01,2013-02-08 09:17:00,
2013-02-08 03:20:00,7.6,5.3,30.20,NNW,328,0.0,0.0,90,0.00,,SKC,0.00,VWS V14.01,2013-02-08 09:20:00,
2013-02-08 03:22:00,10.0,7.4,30.19,West,269,0.0,0.0,89,0.00,,SKC,0.00,VWS V14.01,2013-02-08 09:22:00,
2013-02-08 03:25:00,7.5,5.2,30.20,NNW,328,0.0,0.0,90,0.00,,SKC,0.00,VWS V14.01,2013-02-08 09:25:00,
2013-02-08 03:27:00,9.8,7.2,30.19,NNW,340,0.0,0.0,89,0.00,,SKC,0.00,VWS V14.01,2013-02-08 09:27:00,
2013-02-08 03:30:00,7.3,5.0,30.22,NNW,328,0.0,0.0,90,0.00,,SKC,0.00,VWS V14.01,2013-02-08 09:30:00,
2013-02-08 03:32:00,9.6,7.0,30.20,SW,215,0.0,0.0,89,0.00,,SKC,0.00,VWS V14.01,2013-02-08 09:32:00,
2013-02-08 03:35:00,7.5,5.4,30.22,NNW,329,0.0,0.0,91,0.00,,SKC,0.00,VWS V14.01,2013-02-08 09:35:00,
2013-02-08 03:37:00,9.3,6.7,30.20,West,265,0.0,0.0,89,0.00,,SKC,0.00,VWS V14.01,2013-02-08 09:37:00,
2013-02-08 03:40:00,7.2,4.9,30.22,NNW,328,0.0,0.0,90,0.00,,SKC,0.00,VWS V14.01,2013-02-08 09:40:00,
2013-02-08 03:42:00,9.1,6.5,30.20,ENE,78,0.0,0.0,89,0.00,,SKC,0.00,VWS V14.01,2013-02-08 09:42:00,
2013-02-08 03:45:00,6.7,4.4,30.20,NNW,334,0.0,0.0,90,0.00,,SKC,0.00,VWS V14.01,2013-02-08 09:45:00,
2013-02-08 03:47:00,9.0,6.7,30.20,NNW,341,0.0,0.0,90,0.00,,SKC,0.00,VWS V14.01,2013-02-08 09:47:00,
2013-02-08 03:50:00,6.6,4.3,30.20,NW,310,0.0,0.0,90,0.00,,SKC,0.00,VWS V14.01,2013-02-08 09:50:00,
2013-02-08 03:52:00,8.9,6.6,30.20,NNW,328,0.0,0.0,90,0.00,,SKC,0.00,VWS V14.01,2013-02-08 09:52:00,
2013-02-08 03:55:00,6.6,4.3,30.20,NW,309,0.0,0.0,90,0.00,,SKC,0.00,VWS V14.01,2013-02-08 09:55:00,
2013-02-08 03:57:00,8.8,6.5,30.20,NNW,329,0.0,0.0,90,0.00,,SKC,0.00,VWS V14.01,2013-02-08 09:57:00,
2013-02-08 04:00:00,6.4,4.1,30.21,NW,310,0.0,0.0,90,0.00,,SKC,0.00,VWS V14.01,2013-02-08 10:00:00,
2013-02-08 04:02:00,8.5,6.2,30.20,NNW,328,0.0,0.0,90,0.00,,SKC,0.00,VWS V14.01,2013-02-08 10:02:00,
2013-02-08 04:05:00,6.2,3.9,30.21,NW,309,0.0,0.0,90,0.00,,SKC,0.00,VWS V14.01,2013-02-08 10:05:00,
2013-02-08 04:07:00,8.4,6.1,30.20,NNW,329,0.0,0.0,90,0.00,,SKC,0.00,VWS V14.01,2013-02-08 10:07:00,
2013-02-08 04:10:00,6.1,4.0,30.21,NW,310,0.0,0.0,91,0.00,,SKC,0.00,VWS V14.01,2013-02-08 10:10:00,
2013-02-08 04:12:00,8.2,5.9,30.20,NNW,328,0.0,0.0,90,0.00,,SKC,0.00,VWS V14.01,2013-02-08 10:12:00,
2013-02-08 04:15:00,5.9,3.8,30.22,NW,309,0.0,0.0,91,0.00,,SKC,0.00,VWS V14.01,2013-02-08 10:15:00,
2013-02-08 04:17:00,8.0,5.7,30.20,NNW,329,0.0,0.0,90,0.00,,SKC,0.00,VWS V14.01,2013-02-08 10:17:00,
2013-02-08 04:20:00,5.9,3.8,30.22,NW,309,0.0,0.0,91,0.00,,SKC,0.00,VWS V14.01,2013-02-08 10:20:00,
2013-02-08 04:22:00,7.6,5.3,30.20,NNW,328,0.0,0.0,90,0.00,,SKC,0.00,VWS V14.01,2013-02-08 10:22:00,
2013-02-08 04:25:00,5.7,3.7,30.22,NW,310,0.0,0.0,91,0.00,,SKC,0.00,VWS V14.01,2013-02-08 10:25:00,
2013-02-08 04:27:00,7.5,5.2,30.20,NNW,328,0.0,0.0,90,0.00,,SKC,0.00,VWS V14.01,2013-02-08 10:27:00,
2013-02-08 04:30:00,5.4,3.3,30.24,NW,309,0.0,0.0,91,0.00,,SKC,0.00,VWS V14.01,2013-02-08 10:30:00,
2013-02-08 04:32:00,7.3,5.0,30.22,NNW,328,0.0,0.0,90,0.00,,SKC,0.00,VWS V14.01,2013-02-08 10:32:00,
2013-02-08 04:35:00,5.2,3.2,30.24,NW,309,0.0,0.0,91,0.00,,SKC,0.00,VWS V14.01,2013-02-08 10:35:00,
2013-02-08 04:37:00,7.4,5.3,30.22,NNW,328,0.0,0.0,91,0.00,,SKC,0.00,VWS V14.01,2013-02-08 10:37:00,
2013-02-08 04:40:00,5.0,3.0,30.24,NW,310,0.0,0.0,91,0.00,,SKC,0.00,VWS V14.01,2013-02-08 10:40:00,
2013-02-08 04:42:00,7.2,4.9,30.22,NNW,328,0.0,0.0,90,0.00,,SKC,0.00,VWS V14.01,2013-02-08 10:42:00,
2013-02-08 04:45:00,4.8,2.8,30.24,NW,310,0.0,0.0,91,0.00,,SKC,0.00,VWS V14.01,2013-02-08 10:45:00,
2013-02-08 04:47:00,6.7,4.4,30.20,NNW,334,0.0,0.0,90,0.00,,SKC,0.00,VWS V14.01,2013-02-08 10:47:00,
2013-02-08 04:50:00,4.6,2.6,30.24,NW,309,0.0,0.0,91,0.00,,SKC,0.00,VWS V14.01,2013-02-08 10:50:00,
2013-02-08 04:52:00,6.6,4.3,30.20,NW,310,0.0,0.0,90,0.00,,SKC,0.00,VWS V14.01,2013-02-08 10:52:00,
2013-02-08 04:55:00,4.2,1.9,30.24,NW,310,0.0,0.0,90,0.00,,SKC,0.00,VWS V14.01,2013-02-08 10:55:00,
2013-02-08 04:57:00,6.6,4.3,30.20,NW,309,0.0,0.0,90,0.00,,SKC,0.00,VWS V14.01,2013-02-08 10:57:00,
2013-02-08 05:00:00,4.1,1.8,30.24,West,261,0.0,0.0,90,0.00,,SKC,0.00,VWS V14.01,2013-02-08 11:00:00,
2013-02-08 05:02:00,6.4,4.1,30.21,NW,310,0.0,0.0,90,0.00,,SKC,0.00,VWS V14.01,2013-02-08 11:02:00,
2013-02-08 05:05:00,4.2,2.2,30.24,West,261,0.0,0.0,91,0.00,,SKC,0.00,VWS V14.01,2013-02-08 11:05:00,
2013-02-08 05:07:00,6.2,3.9,30.21,NW,309,0.0,0.0,90,0.00,,SKC,0.00,VWS V14.01,2013-02-08 11:07:00,
2013-02-08 05:10:00,4.3,2.3,30.24,West,261,0.0,0.0,91,0.00,,SKC,0.00,VWS V14.01,2013-02-08 11:10:00,
2013-02-08 05:12:00,6.1,4.0,30.21,NW,310,0.0,0.0,91,0.00,,SKC,0.00,VWS V14.01,2013-02-08 11:12:00,
2013-02-08 05:15:00,4.3,2.3,30.24,WSW,254,0.0,0.0,91,0.00,,SKC,0.00,VWS V14.01,2013-02-08 11:15:00,
2013-02-08 05:17:00,5.9,3.8,30.22,NW,309,0.0,0.0,91,0.00,,SKC,0.00,VWS V14.01,2013-02-08 11:17:00,
2013-02-08 05:20:00,4.1,2.1,30.24,WSW,254,0.0,0.0,91,0.00,,SKC,0.00,VWS V14.01,2013-02-08 11:20:00,
2013-02-08 05:22:00,5.9,3.8,30.22,NW,310,0.0,0.0,91,0.00,,SKC,0.00,VWS V14.01,2013-02-08 11:22:00,
2013-02-08 05:25:00,3.9,1.6,30.24,WSW,254,0.0,0.0,90,0.00,,SKC,0.00,VWS V14.01,2013-02-08 11:25:00,
2013-02-08 05:27:00,5.7,3.7,30.22,NW,309,0.0,0.0,91,0.00,,SKC,0.00,VWS V14.01,2013-02-08 11:27:00,
2013-02-08 05:30:00,3.9,1.9,30.25,WSW,254,0.0,0.0,91,0.00,,SKC,0.00,VWS V14.01,2013-02-08 11:30:00,
2013-02-08 05:32:00,5.4,3.3,30.24,NW,309,0.0,0.0,91,0.00,,SKC,0.00,VWS V14.01,2013-02-08 11:32:00,
2013-02-08 05:35:00,3.8,1.8,30.25,West,261,0.0,0.0,91,0.00,,SKC,0.00,VWS V14.01,2013-02-08 11:35:00,
2013-02-08 05:37:00,5.2,3.2,30.24,NW,310,0.0,0.0,91,0.00,,SKC,0.00,VWS V14.01,2013-02-08 11:37:00,
2013-02-08 05:40:00,3.8,1.8,30.25,West,261,0.0,0.0,91,0.00,,SKC,0.00,VWS V14.01,2013-02-08 11:40:00,
2013-02-08 05:42:00,5.0,3.0,30.24,NW,310,0.0,0.0,91,0.00,,SKC,0.00,VWS V14.01,2013-02-08 11:42:00,
2013-02-08 05:45:00,4.1,2.1,30.26,West,261,0.0,0.0,91,0.00,,SKC,0.00,VWS V14.01,2013-02-08 11:45:00,
2013-02-08 05:47:00,4.8,2.8,30.24,NW,310,0.0,0.0,91,0.00,,SKC,0.00,VWS V14.01,2013-02-08 11:47:00,
2013-02-08 05:50:00,4.1,2.1,30.26,WNW,284,0.0,0.0,91,0.00,,SKC,0.00,VWS V14.01,2013-02-08 11:50:00,
2013-02-08 05:52:00,4.6,2.6,30.24,NW,309,0.0,0.0,91,0.00,,SKC,0.00,VWS V14.01,2013-02-08 11:52:00,
2013-02-08 05:55:00,4.1,2.1,30.26,WNW,284,0.0,0.0,91,0.00,,SKC,0.00,VWS V14.01,2013-02-08 11:55:00,
2013-02-08 05:57:00,4.2,1.9,30.24,NW,310,0.0,0.0,90,0.00,,SKC,0.00,VWS V14.01,2013-02-08 11:57:00,
2013-02-08 06:00:00,4.3,2.5,30.27,WNW,284,0.0,0.0,92,0.00,,SKC,0.00,VWS V14.01,2013-02-08 12:00:00,
2013-02-08 06:02:00,4.1,1.8,30.24,West,261,0.0,0.0,90,0.00,,SKC,0.00,VWS V14.01,2013-02-08 12:02:00,
2013-02-08 06:05:00,4.4,2.6,30.27,WNW,284,0.0,0.0,92,0.00,,SKC,0.00,VWS V14.01,2013-02-08 12:05:00,
2013-02-08 06:07:00,4.2,2.2,30.24,West,261,0.0,0.0,91,0.00,,SKC,0.00,VWS V14.01,2013-02-08 12:07:00,
2013-02-08 06:10:00,4.3,2.3,30.27,WNW,284,0.0,0.0,91,0.00,,SKC,0.00,VWS V14.01,2013-02-08 12:10:00,
2013-02-08 06:12:00,4.3,2.3,30.24,West,261,0.0,0.0,91,0.00,,SKC,0.00,VWS V14.01,2013-02-08 12:12:00,
2013-02-08 06:15:00,4.3,2.3,30.27,WNW,284,0.0,0.0,91,0.00,,SKC,0.00,VWS V14.01,2013-02-08 12:15:00,
2013-02-08 06:17:00,4.2,2.2,30.24,WSW,254,0.0,0.0,91,0.00,,SKC,0.00,VWS V14.01,2013-02-08 12:17:00,
2013-02-08 06:20:00,4.3,2.3,30.27,WNW,284,0.0,0.0,91,0.00,,SKC,0.00,VWS V14.01,2013-02-08 12:20:00,
2013-02-08 06:22:00,4.1,2.1,30.24,WSW,254,0.0,0.0,91,0.00,,SKC,0.00,VWS V14.01,2013-02-08 12:22:00,
2013-02-08 06:25:00,4.3,2.3,30.27,WNW,284,0.0,0.0,91,0.00,,SKC,0.00,VWS V14.01,2013-02-08 12:25:00,
2013-02-08 06:27:00,3.9,1.6,30.24,WSW,254,0.0,0.0,90,0.00,,SKC,0.00,VWS V14.01,2013-02-08 12:27:00,
2013-02-08 06:30:00,4.3,2.3,30.28,WNW,284,0.0,0.0,91,0.00,,SKC,0.00,VWS V14.01,2013-02-08 12:30:00,
2013-02-08 06:32:00,3.9,1.9,30.25,WSW,254,0.0,0.0,91,0.00,,SKC,0.00,VWS V14.01,2013-02-08 12:32:00,
2013-02-08 06:35:00,4.3,2.3,30.28,WNW,284,0.0,0.0,91,0.00,,SKC,0.00,VWS V14.01,2013-02-08 12:35:00,
2013-02-08 06:37:00,3.8,1.8,30.25,West,261,0.0,0.0,91,0.00,,SKC,0.00,VWS V14.01,2013-02-08 12:37:00,
2013-02-08 06:40:00,4.4,2.4,30.28,WNW,284,0.0,0.0,91,0.00,,SKC,0.00,VWS V14.01,2013-02-08 12:40:00,
2013-02-08 06:42:00,3.9,1.9,30.25,West,261,0.0,0.0,91,0.00,,SKC,0.00,VWS V14.01,2013-02-08 12:42:00,
2013-02-08 06:45:00,4.5,2.5,30.29,WNW,284,0.0,0.0,91,0.00,,SKC,0.00,VWS V14.01,2013-02-08 12:45:00,
2013-02-08 06:47:00,4.1,2.1,30.26,West,261,0.0,0.0,91,0.00,,SKC,0.00,VWS V14.01,2013-02-08 12:47:00,
2013-02-08 06:50:00,4.5,2.5,30.29,WNW,284,0.0,0.0,91,0.00,,SKC,0.00,VWS V14.01,2013-02-08 12:50:00,
2013-02-08 06:52:00,4.1,2.1,30.26,WNW,284,0.0,0.0,91,0.00,,SKC,0.00,VWS V14.01,2013-02-08 12:52:00,
2013-02-08 06:55:00,4.5,2.5,30.29,WNW,284,0.0,0.0,91,0.00,,SKC,0.00,VWS V14.01,2013-02-08 12:55:00,
2013-02-08 06:57:00,4.1,2.1,30.26,WNW,284,0.0,0.0,91,0.00,,SKC,0.00,VWS V14.01,2013-02-08 12:57:00,
2013-02-08 07:00:00,4.6,2.6,30.30,WNW,284,0.0,0.0,91,0.00,,SKC,0.00,VWS V14.01,2013-02-08 13:00:00,
2013-02-08 07:02:00,4.3,2.5,30.27,WNW,284,0.0,0.0,92,0.00,,SKC,0.00,VWS V14.01,2013-02-08 13:02:00,
2013-02-08 07:05:00,5.0,3.0,30.30,NE,56,0.0,0.0,91,0.00,,SKC,0.00,VWS V14.01,2013-02-08 13:05:00,
2013-02-08 07:07:00,4.4,2.6,30.27,WNW,284,0.0,0.0,92,0.00,,SKC,0.00,VWS V14.01,2013-02-08 13:07:00,
2013-02-08 07:10:00,5.4,3.3,30.30,NNE,19,0.0,0.0,91,0.00,,SKC,0.00,VWS V14.01,2013-02-08 13:10:00,
2013-02-08 07:13:00,4.3,2.3,30.27,WNW,284,0.0,0.0,91,0.00,,SKC,0.00,VWS V14.01,2013-02-08 13:13:00,
2013-02-08 07:15:00,5.8,3.7,30.30,NW,310,0.0,0.0,91,0.00,,SKC,0.00,VWS V14.01,2013-02-08 13:15:00,
2013-02-08 07:18:00,4.3,2.3,30.27,WNW,284,0.0,0.0,91,0.00,,SKC,0.00,VWS V14.01,2013-02-08 13:18:00,
2013-02-08 07:20:00,6.3,4.5,30.30,NNW,339,0.0,2.0,92,0.00,,SKC,0.00,VWS V14.01,2013-02-08 13:20:00,
2013-02-08 07:23:00,4.3,2.3,30.27,WNW,284,0.0,0.0,91,0.00,,SKC,0.00,VWS V14.01,2013-02-08 13:23:00,
2013-02-08 07:25:00,6.6,4.5,30.30,NNW,348,1.0,2.0,91,0.00,,SKC,0.00,VWS V14.01,2013-02-08 13:25:00,
2013-02-08 07:28:00,4.3,2.3,30.27,WNW,284,0.0,0.0,91,0.00,,SKC,0.00,VWS V14.01,2013-02-08 13:28:00,
2013-02-08 07:30:00,7.1,5.0,30.31,West,272,0.0,2.0,91,0.00,,SKC,0.00,VWS V14.01,2013-02-08 13:30:00,
2013-02-08 07:33:00,4.3,2.3,30.28,WNW,284,0.0,0.0,91,0.00,,SKC,0.00,VWS V14.01,2013-02-08 13:33:00,
2013-02-08 07:35:00,7.5,5.4,30.31,NNW,327,0.0,1.0,91,0.00,,SKC,0.00,VWS V14.01,2013-02-08 13:35:00,
2013-02-08 07:38:00,4.3,2.3,30.28,WNW,284,0.0,0.0,91,0.00,,SKC,0.00,VWS V14.01,2013-02-08 13:38:00,
2013-02-08 07:40:00,7.9,5.8,30.31,NW,322,1.0,1.0,91,0.00,,SKC,0.00,VWS V14.01,2013-02-08 13:40:00,
2013-02-08 07:43:00,4.4,2.4,30.28,WNW,284,0.0,0.0,91,0.00,,SKC,0.00,VWS V14.01,2013-02-08 13:43:00,
2013-02-08 07:45:00,8.3,6.0,30.31,North,5,0.0,2.0,90,0.00,,SKC,0.00,VWS V14.01,2013-02-08 13:45:00,
2013-02-08 07:48:00,4.5,2.5,30.29,WNW,284,0.0,0.0,91,0.00,,SKC,0.00,VWS V14.01,2013-02-08 13:48:00,
2013-02-08 07:50:00,8.7,6.4,30.31,NNW,346,0.0,0.0,90,0.00,,SKC,0.00,VWS V14.01,2013-02-08 13:50:00,
2013-02-08 07:53:00,4.5,2.5,30.29,WNW,284,0.0,0.0,91,0.00,,SKC,0.00,VWS V14.01,2013-02-08 13:53:00,
2013-02-08 07:55:00,9.1,6.8,30.31,NE,51,0.0,1.0,90,0.00,,SKC,0.00,VWS V14.01,2013-02-08 13:55:00,
2013-02-08 07:58:00,4.4,2.4,30.29,WNW,284,0.0,0.0,91,0.00,,SKC,0.00,VWS V14.01,2013-02-08 13:58:00,
2013-02-08 08:00:00,9.6,7.3,30.31,NE,39,2.0,3.0,90,0.00,,SKC,0.00,VWS V14.01,2013-02-08 14:00:00,
2013-02-08 08:03:00,4.6,2.6,30.30,WNW,284,0.0,0.0,91,0.00,,SKC,0.00,VWS V14.01,2013-02-08 14:03:00,
2013-02-08 08:05:00,10.0,7.4,30.31,NNE,30,1.0,4.0,89,0.00,,SKC,0.00,VWS V14.01,2013-02-08 14:05:00,
2013-02-08 08:08:00,5.1,3.0,30.30,ENE,57,0.0,0.0,91,0.00,,SKC,0.00,VWS V14.01,2013-02-08 14:08:00,
2013-02-08 08:10:00,10.3,7.7,30.31,SW,233,0.0,1.0,89,0.00,,SKC,0.00,VWS V14.01,2013-02-08 14:10:00,
2013-02-08 08:13:00,5.5,3.5,30.30,NNE,18,0.0,0.0,91,0.00,,SKC,0.00,VWS V14.01,2013-02-08 14:13:00,
2013-02-08 08:15:00,10.6,8.0,30.31,NW,321,0.0,1.0,89,0.00,,SKC,0.00,VWS V14.01,2013-02-08 14:15:00,
2013-02-08 08:18:00,5.9,3.8,30.30,NNW,331,0.0,0.0,91,0.00,,SKC,0.00,VWS V14.01,2013-02-08 14:18:00,
2013-02-08 08:20:00,11.0,8.4,30.31,NE,49,0.0,2.0,89,0.00,,SKC,0.00,VWS V14.01,2013-02-08 14:20:00,
2013-02-08 08:23:00,6.4,4.3,30.30,WNW,290,0.0,0.0,91,0.00,,SKC,0.00,VWS V14.01,2013-02-08 14:23:00,
2013-02-08 08:25:00,11.3,8.4,30.31,WNW,302,0.0,3.0,88,0.00,,SKC,0.00,VWS V14.01,2013-02-08 14:25:00,
2013-02-08 08:28:00,6.7,4.6,30.30,WNW,302,0.0,2.0,91,0.00,,SKC,0.00,VWS V14.01,2013-02-08 14:28:00,
2013-02-08 08:30:00,11.7,8.8,30.31,North,11,2.0,2.0,88,0.00,,SKC,0.00,VWS V14.01,2013-02-08 14:30:00,
2013-02-08 08:33:00,7.2,5.1,30.31,SW,230,0.0,0.0,91,0.00,,SKC,0.00,VWS V14.01,2013-02-08 14:33:00,
2013-02-08 08:35:00,12.0,9.1,30.31,West,276,0.0,2.0,88,0.00,,SKC,0.00,VWS V14.01,2013-02-08 14:35:00,
2013-02-08 08:38:00,7.6,5.5,30.31,NNW,327,1.0,1.0,91,0.00,,SKC,0.00,VWS V14.01,2013-02-08 14:38:00,
2013-02-08 08:40:00,12.4,9.3,30.31,ENE,61,0.0,0.0,87,0.00,,SKC,0.00,VWS V14.01,2013-02-08 14:40:00,
2013-02-08 08:43:00,7.9,5.6,30.31,North,11,1.0,2.0,90,0.00,,SKC,0.00,VWS V14.01,2013-02-08 14:43:00,
2013-02-08 08:45:00,12.7,9.6,30.31,NNE,28,0.0,2.0,87,0.00,,SKC,0.00,VWS V14.01,2013-02-08 14:45:00,
2013-02-08 08:48:00,8.4,6.1,30.31,North,11,0.0,0.0,90,0.00,,SKC,0.00,VWS V14.01,2013-02-08 14:48:00,
2013-02-08 08:50:00,13.0,9.6,30.31,ENE,63,0.0,1.0,86,0.00,,SKC,0.00,VWS V14.01,2013-02-08 14:50:00,
2013-02-08 08:53:00,8.7,6.4,30.31,WNW,283,0.0,0.0,90,0.00,,SKC,0.00,VWS V14.01,2013-02-08 14:53:00,
2013-02-08 08:55:00,13.3,9.9,30.31,NW,318,1.0,2.0,86,0.00,,SKC,0.00,VWS V14.01,2013-02-08 14:55:00,
2013-02-08 08:58:00,9.2,6.9,30.31,ENE,64,0.0,0.0,90,0.00,,SKC,0.00,VWS V14.01,2013-02-08 14:58:00,
2013-02-08 09:00:00,13.7,10.3,30.32,NNE,20,1.0,2.0,86,0.00,,SKC,0.00,VWS V14.01,2013-02-08 15:00:00,
2013-02-08 09:03:00,9.6,7.3,30.31,NE,47,0.0,2.0,90,0.00,,SKC,0.00,VWS V14.01,2013-02-08 15:03:00,
2013-02-08 09:05:00,14.0,10.3,30.32,ENE,78,0.0,2.0,85,0.00,,SKC,0.00,VWS V14.01,2013-02-08 15:05:00,
2013-02-08 09:08:00,10.1,7.5,30.31,West,267,0.0,1.0,89,0.00,,SKC,0.00,VWS V14.01,2013-02-08 15:08:00,
2013-02-08 09:10:00,14.5,10.8,30.32,West,262,0.0,1.0,85,0.00,,SKC,0.00,VWS V14.01,2013-02-08 15:10:00,
2013-02-08 09:13:00,10.4,7.8,30.31,WNW,296,0.0,0.0,89,0.00,,SKC,0.00,VWS V14.01,2013-02-08 15:13:00,
2013-02-08 09:15:00,14.6,10.6,30.33,ENE,59,0.0,3.0,84,0.00,,SKC,0.00,VWS V14.01,2013-02-08 15:15:00,
2013-02-08 09:18:00,10.7,8.1,30.31,WNW,300,0.0,1.0,89,0.00,,SKC,0.00,VWS V14.01,2013-02-08 15:18:00,
2013-02-08 09:20:00,14.9,10.9,30.33,WNW,284,0.0,1.0,84,0.00,,SKC,0.00,VWS V14.01,2013-02-08 15:20:00,
2013-02-08 09:23:00,11.0,8.4,30.31,NE,49,0.0,0.0,89,0.00,,SKC,0.00,VWS V14.01,2013-02-08 15:23:00,
2013-02-08 09:25:00,15.2,10.7,30.33,NNW,346,1.0,8.0,82,0.00,,SKC,0.00,VWS V14.01,2013-02-08 15:25:00,
2013-02-08 09:28:00,11.4,8.5,30.31,ENE,61,1.0,2.0,88,0.00,,SKC,0.00,VWS V14.01,2013-02-08 15:28:00,
2013-02-08 09:30:00,15.7,11.2,30.33,NE,54,1.0,2.0,82,0.00,,SKC,0.00,VWS V14.01,2013-02-08 15:30:00,
2013-02-08 09:33:00,11.7,8.8,30.31,WSW,256,0.0,2.0,88,0.00,,SKC,0.00,VWS V14.01,2013-02-08 15:33:00,
2013-02-08 09:35:00,16.2,11.4,30.33,West,279,0.0,4.0,81,0.00,,SKC,0.00,VWS V14.01,2013-02-08 15:35:00,
2013-02-08 09:38:00,12.1,9.2,30.31,WNW,286,0.0,0.0,88,0.00,,SKC,0.00,VWS V14.01,2013-02-08 15:38:00,
2013-02-08 09:40:00,16.2,10.9,30.33,ENE,74,2.0,3.0,79,0.00,,SKC,0.00,VWS V14.01,2013-02-08 15:40:00,
2013-02-08 09:43:00,12.5,9.4,30.31,East,82,0.0,0.0,87,0.00,,SKC,0.00,VWS V14.01,2013-02-08 15:43:00,
2013-02-08 09:45:00,16.4,11.0,30.33,ENE,64,1.0,5.0,79,0.00,,SKC,0.00,VWS V14.01,2013-02-08 15:45:00,
2013-02-08 09:48:00,12.8,9.7,30.31,NNE,28,0.0,0.0,87,0.00,,SKC,0.00,VWS V14.01,2013-02-08 15:48:00,
2013-02-08 09:50:00,16.7,11.3,30.33,NNW,348,3.0,4.0,79,0.00,,SKC,0.00,VWS V14.01,2013-02-08 15:50:00,
2013-02-08 09:53:00,13.1,9.7,30.31,East,86,0.0,0.0,86,0.00,,SKC,0.00,VWS V14.01,2013-02-08 15:53:00,
2013-02-08 09:55:00,17.1,11.4,30.33,NE,50,2.0,3.0,78,0.00,,SKC,0.00,VWS V14.01,2013-02-08 15:55:00,
2013-02-08 09:58:00,13.4,10.0,30.31,WNW,300,1.0,2.0,86,0.00,,SKC,0.00,VWS V14.01,2013-02-08 15:58:00,
2013-02-08 10:00:00,17.6,11.6,30.33,WNW,287,0.0,3.0,77,0.00,,SKC,0.00,VWS V14.01,2013-02-08 16:00:00,
2013-02-08 10:03:00,13.8,10.4,30.32,NE,56,1.0,2.0,86,0.00,,SKC,0.00,VWS V14.01,2013-02-08 16:03:00,
2013-02-08 10:05:00,17.8,11.5,30.33,East,94,0.0,3.0,76,0.00,,SKC,0.00,VWS V14.01,2013-02-08 16:05:00,
2013-02-08 10:08:00,14.1,10.4,30.32,South,190,0.0,0.0,85,0.00,,SKC,0.00,VWS V14.01,2013-02-08 16:08:00,
2013-02-08 10:10:00,18.4,12.4,30.33,WSW,250,0.0,1.0,77,0.00,,SKC,0.00,VWS V14.01,2013-02-08 16:10:00,
2013-02-08 10:13:00,14.5,10.8,30.32,North,10,2.0,3.0,85,0.00,,SKC,0.00,VWS V14.01,2013-02-08 16:13:00,
2013-02-08 10:15:00,18.8,12.2,30.33,West,268,0.0,2.0,75,0.00,,SKC,0.00,VWS V14.01,2013-02-08 16:15:00,
2013-02-08 10:18:00,14.7,10.5,30.33,ENE,59,0.0,1.0,83,0.00,,SKC,0.00,VWS V14.01,2013-02-08 16:18:00,
2013-02-08 10:20:00,18.9,12.3,30.33,ENE,57,0.0,2.0,75,0.00,,SKC,0.00,VWS V14.01,2013-02-08 16:20:00,
2013-02-08 10:23:00,15.0,11.1,30.33,NE,55,3.0,3.0,84,0.00,,SKC,0.00,VWS V14.01,2013-02-08 16:23:00,
2013-02-08 10:25:00,19.3,12.4,30.33,West,274,0.0,2.0,74,0.00,,SKC,0.00,VWS V14.01,2013-02-08 16:25:00,
2013-02-08 10:28:00,15.3,10.8,30.33,NNE,22,1.0,2.0,82,0.00,,SKC,0.00,VWS V14.01,2013-02-08 16:28:00,
2013-02-08 10:30:00,19.8,12.2,30.33,NE,36,0.0,3.0,72,0.00,,SKC,0.00,VWS V14.01,2013-02-08 16:30:00,
2013-02-08 10:33:00,15.8,11.0,30.33,WSW,254,1.0,4.0,81,0.00,,SKC,0.00,VWS V14.01,2013-02-08 16:33:00,
2013-02-08 10:35:00,20.0,12.4,30.33,NNW,329,0.0,2.0,72,0.00,,SKC,0.00,VWS V14.01,2013-02-08 16:35:00,
2013-02-08 10:38:00,16.3,11.5,30.33,NNE,22,1.0,2.0,81,0.00,,SKC,0.00,VWS V14.01,2013-02-08 16:38:00,
2013-02-08 10:40:00,20.6,12.7,30.33,ENE,64,2.0,2.0,71,0.00,,SKC,0.00,VWS V14.01,2013-02-08 16:40:00,
2013-02-08 10:43:00,16.2,10.8,30.33,WNW,290,0.0,2.0,79,0.00,,SKC,0.00,VWS V14.01,2013-02-08 16:43:00,
2013-02-08 10:45:00,20.9,12.7,30.32,NNW,328,0.0,3.0,70,0.00,,SKC,0.00,VWS V14.01,2013-02-08 16:45:00,
2013-02-08 10:48:00,16.5,11.4,30.33,North,355,0.0,2.0,80,0.00,,SKC,0.00,VWS V14.01,2013-02-08 16:48:00,
2013-02-08 10:50:00,21.1,12.9,30.32,NNE,29,0.0,3.0,70,0.00,,SKC,0.00,VWS V14.01,2013-02-08 16:50:00,
2013-02-08 10:53:00,16.8,11.4,30.33,East,93,0.0,3.0,79,0.00,,SKC,0.00,VWS V14.01,2013-02-08 16:53:00,
2013-02-08 10:55:00,21.4,12.5,30.32,WSW,246,1.0,3.0,68,0.00,,SKC,0.00,VWS V14.01,2013-02-08 16:55:00,
2013-02-08 10:58:00,17.2,11.5,30.33,West,279,0.0,3.0,78,0.00,,SKC,0.00,VWS V14.01,2013-02-08 16:58:00,
2013-02-08 11:00:00,21.8,12.5,30.31,NNE,20,0.0,1.0,67,0.00,,SKC,0.00,VWS V14.01,2013-02-08 17:00:00,
2013-02-08 11:03:00,17.7,11.7,30.33,ENE,63,2.0,2.0,77,0.00,,SKC,0.00,VWS V14.01,2013-02-08 17:03:00,
2013-02-08 11:05:00,22.1,12.5,30.31,NE,51,3.0,3.0,66,0.00,,SKC,0.00,VWS V14.01,2013-02-08 17:05:00,
2013-02-08 11:08:00,17.8,11.5,30.33,WSW,238,0.0,0.0,76,0.00,,SKC,0.00,VWS V14.01,2013-02-08 17:08:00,
2013-02-08 11:10:00,21.5,12.3,30.31,North,11,1.0,5.0,67,0.00,,SKC,0.00,VWS V14.01,2013-02-08 17:10:00,
2013-02-08 11:13:00,18.6,12.3,30.33,East,86,1.0,1.0,76,0.00,,SKC,0.00,VWS V14.01,2013-02-08 17:13:00,
2013-02-08 11:15:00,21.6,12.0,30.31,ENE,63,0.0,3.0,66,0.00,,SKC,0.00,VWS V14.01,2013-02-08 17:15:00,
2013-02-08 11:18:00,18.8,12.2,30.33,West,272,2.0,2.0,75,0.00,,SKC,0.00,VWS V14.01,2013-02-08 17:18:00,
2013-02-08 11:20:00,21.6,12.4,30.31,WNW,292,1.0,4.0,67,0.00,,SKC,0.00,VWS V14.01,2013-02-08 17:20:00,
2013-02-08 11:23:00,18.8,11.9,30.33,ENE,58,0.0,0.0,74,0.00,,SKC,0.00,VWS V14.01,2013-02-08 17:23:00,
2013-02-08 11:25:00,21.9,12.3,30.31,West,263,0.0,2.0,66,0.00,,SKC,0.00,VWS V14.01,2013-02-08 17:25:00,
2013-02-08 11:28:00,19.4,12.2,30.33,West,275,0.0,0.0,73,0.00,,SKC,0.00,VWS V14.01,2013-02-08 17:28:00,
2013-02-08 11:30:00,22.7,13.1,30.31,NW,311,0.0,2.0,66,0.00,,SKC,0.00,VWS V14.01,2013-02-08 17:30:00,
2013-02-08 11:33:00,19.7,12.1,30.33,SSE,160,0.0,0.0,72,0.00,,SKC,0.00,VWS V14.01,2013-02-08 17:33:00,
2013-02-08 11:35:00,23.0,12.6,30.31,North,11,2.0,3.0,64,0.00,,SKC,0.00,VWS V14.01,2013-02-08 17:35:00,
2013-02-08 11:38:00,20.2,12.6,30.33,WNW,294,0.0,0.0,72,0.00,,SKC,0.00,VWS V14.01,2013-02-08 17:38:00,
2013-02-08 11:40:00,23.2,12.5,30.31,East,87,2.0,4.0,63,0.00,,SKC,0.00,VWS V14.01,2013-02-08 17:40:00,
2013-02-08 11:43:00,20.6,12.4,30.33,ENE,73,0.0,3.0,70,0.00,,SKC,0.00,VWS V14.01,2013-02-08 17:43:00,
2013-02-08 11:45:00,23.3,12.9,30.31,NNW,329,1.0,3.0,64,0.00,,SKC,0.00,VWS V14.01,2013-02-08 17:45:00,
2013-02-08 11:48:00,20.9,12.4,30.32,West,280,1.0,2.0,69,0.00,,SKC,0.00,VWS V14.01,2013-02-08 17:48:00,
2013-02-08 11:50:00,23.0,11.9,30.31,NE,51,0.0,3.0,62,0.00,,SKC,0.00,VWS V14.01,2013-02-08 17:50:00,
2013-02-08 11:53:00,21.2,13.0,30.32,NE,48,0.0,1.0,70,0.00,,SKC,0.00,VWS V14.01,2013-02-08 17:53:00,
2013-02-08 11:55:00,23.2,12.1,30.31,North,355,2.0,4.0,62,0.00,,SKC,0.00,VWS V14.01,2013-02-08 17:55:00,
2013-02-08 11:58:00,21.4,12.5,30.32,West,265,0.0,1.0,68,0.00,,SKC,0.00,VWS V14.01,2013-02-08 17:58:00,
2013-02-08 12:00:00,23.7,12.6,30.30,WSW,242,0.0,5.0,62,0.00,,SKC,0.00,VWS V14.01,2013-02-08 18:00:00,
2013-02-08 12:04:00,21.9,12.3,30.31,WNW,303,0.0,0.0,66,0.00,,SKC,0.00,VWS V14.01,2013-02-08 18:04:00,
2013-02-08 12:05:00,23.7,11.9,30.30,ENE,71,3.0,4.0,60,0.00,,SKC,0.00,VWS V14.01,2013-02-08 18:05:00,
2013-02-08 12:09:00,21.9,12.0,30.31,East,80,5.0,5.0,65,0.00,,SKC,0.00,VWS V14.01,2013-02-08 18:09:00,
2013-02-08 12:10:00,23.4,11.9,30.30,East,97,0.0,4.0,61,0.00,,SKC,0.00,VWS V14.01,2013-02-08 18:10:00,
2013-02-08 12:14:00,21.6,12.7,30.31,ENE,63,2.0,3.0,68,0.00,,SKC,0.00,VWS V14.01,2013-02-08 18:14:00,
2013-02-08 12:15:00,23.3,12.2,30.30,West,272,1.0,3.0,62,0.00,,SKC,0.00,VWS V14.01,2013-02-08 18:15:00,
2013-02-08 12:19:00,21.6,12.0,30.31,ENE,63,1.0,2.0,66,0.00,,SKC,0.00,VWS V14.01,2013-02-08 18:19:00,
2013-02-08 12:20:00,23.7,12.6,30.30,WNW,282,3.0,3.0,62,0.00,,SKC,0.00,VWS V14.01,2013-02-08 18:20:00,
2013-02-08 12:24:00,21.8,12.5,30.31,NNE,16,2.0,2.0,67,0.00,,SKC,0.00,VWS V14.01,2013-02-08 18:24:00,
2013-02-08 12:25:00,23.9,12.8,30.30,WSW,253,1.0,4.0,62,0.00,,SKC,0.00,VWS V14.01,2013-02-08 18:25:00,
2013-02-08 12:29:00,22.2,13.3,30.31,ENE,74,0.0,2.0,68,0.00,,SKC,0.00,VWS V14.01,2013-02-08 18:29:00,
2013-02-08 12:30:00,24.2,12.3,30.30,SW,223,0.0,4.0,60,0.00,,SKC,0.00,VWS V14.01,2013-02-08 18:30:00,
2013-02-08 12:34:00,22.9,13.3,30.31,NE,55,1.0,1.0,66,0.00,,SKC,0.00,VWS V14.01,2013-02-08 18:34:00,
2013-02-08 12:35:00,24.8,12.9,30.30,WSW,256,0.0,2.0,60,0.00,,SKC,0.00,VWS V14.01,2013-02-08 18:35:00,
2013-02-08 12:39:00,23.2,12.8,30.31,West,281,1.0,2.0,64,0.00,,SKC,0.00,VWS V14.01,2013-02-08 18:39:00,
2013-02-08 12:40:00,24.6,12.7,30.30,NE,44,2.0,3.0,60,0.00,,SKC,0.00,VWS V14.01,2013-02-08 18:40:00,
2013-02-08 12:44:00,23.2,12.1,30.31,ENE,71,1.0,2.0,62,0.00,,SKC,0.00,VWS V14.01,2013-02-08 18:44:00,
2013-02-08 12:45:00,24.4,12.5,30.30,WNW,283,1.0,4.0,60,0.00,,SKC,0.00,VWS V14.01,2013-02-08 18:45:00,
2013-02-08 12:49:00,23.4,12.7,30.31,NE,47,3.0,3.0,63,0.00,,SKC,0.00,VWS V14.01,2013-02-08 18:49:00,
2013-02-08 12:50:00,24.7,12.0,30.30,East,85,2.0,3.0,58,0.00,,SKC,0.00,VWS V14.01,2013-02-08 18:50:00,
2013-02-08 12:54:00,23.2,12.5,30.31,West,260,2.0,4.0,63,0.00,,SKC,0.00,VWS V14.01,2013-02-08 18:54:00,
2013-02-08 12:55:00,24.8,12.9,30.30,NE,47,0.0,2.0,60,0.00,,SKC,0.00,VWS V14.01,2013-02-08 18:55:00,
2013-02-08 12:59:00,23.2,12.1,30.31,SW,223,0.0,5.0,62,0.00,,SKC,0.00,VWS V14.01,2013-02-08 18:59:00,
2013-02-08 13:00:00,25.3,13.4,30.30,WSW,248,0.0,2.0,60,0.00,,SKC,0.00,VWS V14.01,2013-02-08 19:00:00,
2013-02-08 13:04:00,23.9,12.1,30.30,NE,36,1.0,4.0,60,0.00,,SKC,0.00,VWS V14.01,2013-02-08 19:04:00,
2013-02-08 13:05:00,25.1,12.4,30.30,ENE,74,1.0,3.0,58,0.00,,SKC,0.00,VWS V14.01,2013-02-08 19:05:00,
2013-02-08 13:09:00,23.5,12.0,30.30,WNW,297,1.0,4.0,61,0.00,,SKC,0.00,VWS V14.01,2013-02-08 19:09:00,
2013-02-08 13:10:00,24.8,12.5,30.30,NNE,30,2.0,3.0,59,0.00,,SKC,0.00,VWS V14.01,2013-02-08 19:10:00,
2013-02-08 13:14:00,23.2,11.8,30.30,East,88,0.0,3.0,61,0.00,,SKC,0.00,VWS V14.01,2013-02-08 19:14:00,
2013-02-08 13:15:00,24.4,11.4,30.29,East,79,2.0,4.0,57,0.00,,SKC,0.00,VWS V14.01,2013-02-08 19:15:00,
2013-02-08 13:19:00,23.5,12.4,30.30,WNW,296,1.0,2.0,62,0.00,,SKC,0.00,VWS V14.01,2013-02-08 19:19:00,
2013-02-08 13:20:00,24.4,12.9,30.29,ENE,76,1.0,2.0,61,0.00,,SKC,0.00,VWS V14.01,2013-02-08 19:20:00,
2013-02-08 13:24:00,23.8,12.3,30.30,WNW,292,0.0,4.0,61,0.00,,SKC,0.00,VWS V14.01,2013-02-08 19:24:00,
2013-02-08 13:25:00,24.4,12.1,30.29,North,351,1.0,3.0,59,0.00,,SKC,0.00,VWS V14.01,2013-02-08 19:25:00,
2013-02-08 13:29:00,24.1,12.6,30.30,NNW,338,3.0,4.0,61,0.00,,SKC,0.00,VWS V14.01,2013-02-08 19:29:00,
2013-02-08 13:30:00,24.4,12.5,30.30,East,87,2.0,5.0,60,0.00,,SKC,0.00,VWS V14.01,2013-02-08 19:30:00,
2013-02-08 13:34:00,24.5,13.4,30.30,WNW,283,0.0,2.0,62,0.00,,SKC,0.00,VWS V14.01,2013-02-08 19:34:00,
2013-02-08 13:35:00,24.1,11.9,30.30,East,92,0.0,3.0,59,0.00,,SKC,0.00,VWS V14.01,2013-02-08 19:35:00,
2013-02-08 13:39:00,24.8,12.5,30.30,ENE,78,1.0,2.0,59,0.00,,SKC,0.00,VWS V14.01,2013-02-08 19:39:00,
2013-02-08 13:40:00,24.3,12.1,30.30,NNE,15,0.0,3.0,59,0.00,,SKC,0.00,VWS V14.01,2013-02-08 19:40:00,
2013-02-08 13:44:00,24.5,13.0,30.30,West,273,2.0,4.0,61,0.00,,SKC,0.00,VWS V14.01,2013-02-08 19:44:00,
2013-02-08 13:45:00,24.6,12.3,30.30,SSW,195,1.0,2.0,59,0.00,,SKC,0.00,VWS V14.01,2013-02-08 19:45:00,
2013-02-08 13:49:00,24.6,12.7,30.30,WSW,256,0.0,1.0,60,0.00,,SKC,0.00,VWS V14.01,2013-02-08 19:49:00,
2013-02-08 13:50:00,24.7,13.2,30.30,SSW,195,2.0,2.0,61,0.00,,SKC,0.00,VWS V14.01,2013-02-08 19:50:00,
2013-02-08 13:55:00,24.7,12.4,30.30,NE,47,2.0,2.0,59,0.00,,SKC,0.00,VWS V14.01,2013-02-08 19:55:00,
2013-02-08 14:00:00,25.1,13.2,30.30,WSW,253,1.0,2.0,60,0.00,,SKC,0.00,VWS V14.01,2013-02-08 20:00:00,
2013-02-08 14:05:00,25.4,13.5,30.30,ENE,59,1.0,3.0,60,0.00,,SKC,0.00,VWS V14.01,2013-02-08 20:05:00,
2013-02-08 14:10:00,24.8,12.1,30.30,SE,134,0.0,2.0,58,0.00,,SKC,0.00,VWS V14.01,2013-02-08 20:10:00,
2013-02-08 14:15:00,24.7,12.0,30.30,East,85,1.0,3.0,58,0.00,,SKC,0.00,VWS V14.01,2013-02-08 20:15:00,
2013-02-08 14:20:00,24.3,12.1,30.29,NNW,329,0.0,2.0,59,0.00,,SKC,0.00,VWS V14.01,2013-02-08 20:20:00,
2013-02-08 14:25:00,24.4,12.1,30.29,ENE,69,1.0,3.0,59,0.00,,SKC,0.00,VWS V14.01,2013-02-08 20:25:00,
2013-02-08 14:30:00,24.4,12.5,30.29,NE,39,1.0,3.0,60,0.00,,SKC,0.00,VWS V14.01,2013-02-08 20:30:00,
2013-02-08 14:35:00,24.2,11.6,30.30,East,93,2.0,3.0,58,0.00,,SKC,0.00,VWS V14.01,2013-02-08 20:35:00,
2013-02-08 14:40:00,24.2,12.3,30.30,NNE,17,2.0,3.0,60,0.00,,SKC,0.00,VWS V14.01,2013-02-08 20:40:00,
2013-02-08 14:45:00,24.4,12.5,30.30,SW,219,1.0,2.0,60,0.00,,SKC,0.00,VWS V14.01,2013-02-08 20:45:00,
2013-02-08 14:50:00,24.6,12.3,30.30,SSW,194,0.0,2.0,59,0.00,,SKC,0.00,VWS V14.01,2013-02-08 20:50:00,
2013-02-08 14:55:00,24.8,13.3,30.30,SSW,195,0.0,2.0,61,0.00,,SKC,0.00,VWS V14.01,2013-02-08 20:55:00,
2013-02-08 15:00:00,24.9,12.2,30.30,SSW,195,0.0,1.0,58,0.00,,SKC,0.00,VWS V14.01,2013-02-08 21:00:00,
2013-02-08 15:05:00,24.7,12.4,30.30,SSW,194,2.0,2.0,59,0.00,,SKC,0.00,VWS V14.01,2013-02-08 21:05:00,
2013-02-08 15:10:00,24.5,12.2,30.30,SSW,194,0.0,1.0,59,0.00,,SKC,0.00,VWS V14.01,2013-02-08 21:10:00,
2013-02-08 15:15:00,24.7,12.0,30.30,SSW,194,1.0,3.0,58,0.00,,SKC,0.00,VWS V14.01,2013-02-08 21:15:00,
2013-02-08 15:20:00,24.8,12.5,30.30,SSW,194,1.0,1.0,59,0.00,,SKC,0.00,VWS V14.01,2013-02-08 21:20:00,
2013-02-08 15:25:00,24.6,12.3,30.30,SSW,194,0.0,2.0,59,0.00,,SKC,0.00,VWS V14.01,2013-02-08 21:25:00,
2013-02-08 15:30:00,24.6,12.3,30.30,WNW,284,1.0,1.0,59,0.00,,SKC,0.00,VWS V14.01,2013-02-08 21:30:00,
2013-02-08 15:35:00,24.7,12.4,30.30,ENE,61,3.0,3.0,59,0.00,,SKC,0.00,VWS V14.01,2013-02-08 21:35:00,
2013-02-08 15:40:00,24.3,12.1,30.30,North,355,0.0,2.0,59,0.00,,SKC,0.00,VWS V14.01,2013-02-08 21:40:00,
2013-02-08 15:45:00,24.3,12.4,30.30,WNW,303,0.0,1.0,60,0.00,,SKC,0.00,VWS V14.01,2013-02-08 21:45:00,
2013-02-08 15:50:00,24.3,13.2,30.30,WSW,254,0.0,1.0,62,0.00,,SKC,0.00,VWS V14.01,2013-02-08 21:50:00,
2013-02-08 15:55:00,24.2,12.3,30.30,North,351,0.0,2.0,60,0.00,,SKC,0.00,VWS V14.01,2013-02-08 21:55:00,
2013-02-08 16:00:00,24.1,12.6,30.30,West,267,0.0,1.0,61,0.00,,SKC,0.00,VWS V14.01,2013-02-08 22:00:00,
2013-02-08 16:05:00,24.0,12.9,30.30,West,273,0.0,1.0,62,0.00,,SKC,0.00,VWS V14.01,2013-02-08 22:05:00,
2013-02-08 16:10:00,24.3,13.5,30.30,West,273,0.0,0.0,63,0.00,,SKC,0.00,VWS V14.01,2013-02-08 22:10:00,
2013-02-08 16:15:00,23.9,12.4,30.30,ENE,78,1.0,2.0,61,0.00,,SKC,0.00,VWS V14.01,2013-02-08 22:15:00,
2013-02-08 16:20:00,23.8,12.7,30.30,ENE,78,0.0,0.0,62,0.00,,SKC,0.00,VWS V14.01,2013-02-08 22:20:00,
2013-02-08 16:25:00,23.5,12.4,30.30,ENE,78,0.0,0.0,62,0.00,,SKC,0.00,VWS V14.01,2013-02-08 22:25:00,
2013-02-08 16:30:00,23.3,12.2,30.30,ENE,78,0.0,0.0,62,0.00,,SKC,0.00,VWS V14.01,2013-02-08 22:30:00,
2013-02-08 16:35:00,23.2,12.5,30.29,NE,38,1.0,2.0,63,0.00,,SKC,0.00,VWS V14.01,2013-02-08 22:35:00,
2013-02-08 16:40:00,23.0,11.9,30.29,NE,43,0.0,1.0,62,0.00,,SKC,0.00,VWS V14.01,2013-02-08 22:40:00,
2013-02-08 16:45:00,22.8,11.8,30.29,NE,43,0.0,0.0,62,0.00,,SKC,0.00,VWS V14.01,2013-02-08 22:45:00,
2013-02-08 16:50:00,22.5,11.8,30.29,NE,42,0.0,0.0,63,0.00,,SKC,0.00,VWS V14.01,2013-02-08 22:50:00,
2013-02-08 16:55:00,22.2,11.9,30.29,NE,43,0.0,0.0,64,0.00,,SKC,0.00,VWS V14.01,2013-02-08 22:55:00,
2013-02-08 17:00:00,21.9,11.6,30.29,NE,43,0.0,0.0,64,0.00,,SKC,0.00,VWS V14.01,2013-02-08 23:00:00,
2013-02-08 17:05:00,21.6,11.7,30.29,NE,42,0.0,1.0,65,0.00,,SKC,0.00,VWS V14.01,2013-02-08 23:05:00,
2013-02-08 17:10:00,21.2,12.0,30.29,NE,43,0.0,0.0,67,0.00,,SKC,0.00,VWS V14.01,2013-02-08 23:10:00,
2013-02-08 17:15:00,20.8,11.9,30.29,NE,42,0.0,0.0,68,0.00,,SKC,0.00,VWS V14.01,2013-02-08 23:15:00,
2013-02-08 17:20:00,20.4,11.9,30.28,NE,43,0.0,0.0,69,0.00,,SKC,0.00,VWS V14.01,2013-02-08 23:20:00,
2013-02-08 17:25:00,20.1,11.6,30.28,NE,42,0.0,0.0,69,0.00,,SKC,0.00,VWS V14.01,2013-02-08 23:25:00,
2013-02-08 17:30:00,19.7,11.8,30.28,NE,42,0.0,0.0,71,0.00,,SKC,0.00,VWS V14.01,2013-02-08 23:30:00,
2013-02-08 17:35:00,19.0,11.5,30.28,NE,42,0.0,0.0,72,0.00,,SKC,0.00,VWS V14.01,2013-02-08 23:35:00,
2013-02-08 17:40:00,18.4,11.2,30.28,NE,42,0.0,0.0,73,0.00,,SKC,0.00,VWS V14.01,2013-02-08 23:40:00,
2013-02-08 17:45:00,17.9,11.0,30.28,NE,43,0.0,0.0,74,0.00,,SKC,0.00,VWS V14.01,2013-02-08 23:45:00,
2013-02-08 17:50:00,17.5,10.9,30.28,NE,43,0.0,0.0,75,0.00,,SKC,0.00,VWS V14.01,2013-02-08 23:50:00,
2013-02-08 17:55:00,17.0,10.8,30.28,NE,42,0.0,0.0,76,0.00,,SKC,0.00,VWS V14.01,2013-02-08 23:55:00,
2013-02-08 18:00:00,16.6,10.7,30.28,NE,43,0.0,0.0,77,0.00,,SKC,0.00,VWS V14.01,2013-02-09 00:00:00,
2013-02-08 18:05:00,11.6,8.0,30.29,NE,42,0.0,0.0,85,0.00,,SKC,0.00,VWS V14.01,2013-02-09 00:05:00,
2013-02-08 18:06:00,16.4,10.8,30.29,NE,43,0.0,0.0,78,0.00,,SKC,0.00,VWS V14.01,2013-02-09 00:06:00,
2013-02-08 18:10:00,11.4,8.0,30.29,NE,43,0.0,0.0,86,0.00,,SKC,0.00,VWS V14.01,2013-02-09 00:10:00,
2013-02-08 18:11:00,16.0,10.4,30.29,NE,42,0.0,0.0,78,0.00,,SKC,0.00,VWS V14.01,2013-02-09 00:11:00,
2013-02-08 18:15:00,10.9,7.3,30.29,NE,43,0.0,0.0,85,0.00,,SKC,0.00,VWS V14.01,2013-02-09 00:15:00,
2013-02-08 18:16:00,15.6,10.3,30.29,NE,44,0.0,0.0,79,0.00,,SKC,0.00,VWS V14.01,2013-02-09 00:16:00,
2013-02-08 18:20:00,10.3,6.7,30.29,NE,43,0.0,0.0,85,0.00,,SKC,0.00,VWS V14.01,2013-02-09 00:20:00,
2013-02-08 18:21:00,15.1,10.1,30.29,NE,42,0.0,0.0,80,0.00,,SKC,0.00,VWS V14.01,2013-02-09 00:21:00,
2013-02-08 18:25:00,9.9,6.6,30.29,NE,42,0.0,0.0,86,0.00,,SKC,0.00,VWS V14.01,2013-02-09 00:25:00,
2013-02-08 18:26:00,14.7,9.9,30.29,NE,42,0.0,0.0,81,0.00,,SKC,0.00,VWS V14.01,2013-02-09 00:26:00,
2013-02-08 18:30:00,9.6,6.5,30.30,NE,42,0.0,0.0,87,0.00,,SKC,0.00,VWS V14.01,2013-02-09 00:30:00,
2013-02-08 18:31:00,14.4,9.6,30.29,NE,42,0.0,0.0,81,0.00,,SKC,0.00,VWS V14.01,2013-02-09 00:31:00,
2013-02-08 18:35:00,9.4,6.3,30.30,NE,42,0.0,0.0,87,0.00,,SKC,0.00,VWS V14.01,2013-02-09 00:35:00,
2013-02-08 18:36:00,14.0,9.3,30.29,NE,42,0.0,0.0,81,0.00,,SKC,0.00,VWS V14.01,2013-02-09 00:36:00,
2013-02-08 18:40:00,9.0,5.9,30.30,NE,43,0.0,0.0,87,0.00,,SKC,0.00,VWS V14.01,2013-02-09 00:40:00,
2013-02-08 18:41:00,13.7,9.2,30.29,NE,42,0.0,0.0,82,0.00,,SKC,0.00,VWS V14.01,2013-02-09 00:41:00,
2013-02-08 18:45:00,8.7,5.6,30.30,NE,43,0.0,0.0,87,0.00,,SKC,0.00,VWS V14.01,2013-02-09 00:45:00,
2013-02-08 18:46:00,13.3,8.8,30.29,NE,42,0.0,0.0,82,0.00,,SKC,0.00,VWS V14.01,2013-02-09 00:46:00,
2013-02-08 18:50:00,8.4,5.3,30.30,NE,43,0.0,0.0,87,0.00,,SKC,0.00,VWS V14.01,2013-02-09 00:50:00,
2013-02-08 18:51:00,12.9,8.7,30.29,NE,42,0.0,0.0,83,0.00,,SKC,0.00,VWS V14.01,2013-02-09 00:51:00,
2013-02-08 18:55:00,8.4,5.6,30.30,NE,42,0.0,0.0,88,0.00,,SKC,0.00,VWS V14.01,2013-02-09 00:55:00,
2013-02-08 18:56:00,12.5,8.3,30.29,NE,42,0.0,0.0,83,0.00,,SKC,0.00,VWS V14.01,2013-02-09 00:56:00,
2013-02-08 19:00:00,8.2,5.4,30.30,NE,42,0.0,0.0,88,0.00,,SKC,0.00,VWS V14.01,2013-02-09 01:00:00,
2013-02-08 19:01:00,12.0,8.1,30.29,NE,42,0.0,0.0,84,0.00,,SKC,0.00,VWS V14.01,2013-02-09 01:01:00,
2013-02-08 19:05:00,8.1,5.3,30.30,NE,42,0.0,0.0,88,0.00,,SKC,0.00,VWS V14.01,2013-02-09 01:05:00,
2013-02-08 19:06:00,11.7,8.1,30.29,NE,42,0.0,0.0,85,0.00,,SKC,0.00,VWS V14.01,2013-02-09 01:06:00,
2013-02-08 19:10:00,7.8,5.0,30.30,NE,42,0.0,0.0,88,0.00,,SKC,0.00,VWS V14.01,2013-02-09 01:10:00,
2013-02-08 19:11:00,11.4,8.0,30.29,NE,42,0.0,0.0,86,0.00,,SKC,0.00,VWS V14.01,2013-02-09 01:11:00,
2013-02-08 19:15:00,7.8,5.2,30.30,NE,42,0.0,0.0,89,0.00,,SKC,0.00,VWS V14.01,2013-02-09 01:15:00,
2013-02-08 19:16:00,11.0,7.4,30.29,NE,42,0.0,0.0,85,0.00,,SKC,0.00,VWS V14.01,2013-02-09 01:16:00,
2013-02-08 19:20:00,7.6,4.8,30.30,NE,43,0.0,0.0,88,0.00,,SKC,0.00,VWS V14.01,2013-02-09 01:20:00,
2013-02-08 19:21:00,10.5,6.9,30.29,NE,42,0.0,0.0,85,0.00,,SKC,0.00,VWS V14.01,2013-02-09 01:21:00,
2013-02-08 19:25:00,7.3,4.5,30.30,NE,42,0.0,0.0,88,0.00,,SKC,0.00,VWS V14.01,2013-02-09 01:25:00,
2013-02-08 19:26:00,10.0,6.7,30.29,NE,42,0.0,0.0,86,0.00,,SKC,0.00,VWS V14.01,2013-02-09 01:26:00,
2013-02-08 19:30:00,7.1,4.3,30.30,NE,43,0.0,0.0,88,0.00,,SKC,0.00,VWS V14.01,2013-02-09 01:30:00,
2013-02-08 19:31:00,9.7,6.6,30.29,NE,42,0.0,0.0,87,0.00,,SKC,0.00,VWS V14.01,2013-02-09 01:31:00,
2013-02-08 19:35:00,6.9,4.1,30.30,NE,43,0.0,0.0,88,0.00,,SKC,0.00,VWS V14.01,2013-02-09 01:35:00,
2013-02-08 19:36:00,9.4,6.3,30.30,NE,43,0.0,0.0,87,0.00,,SKC,0.00,VWS V14.01,2013-02-09 01:36:00,
2013-02-08 19:40:00,6.7,3.9,30.30,NE,42,0.0,0.0,88,0.00,,SKC,0.00,VWS V14.01,2013-02-09 01:40:00,
2013-02-08 19:41:00,9.1,6.0,30.30,NE,42,0.0,0.0,87,0.00,,SKC,0.00,VWS V14.01,2013-02-09 01:41:00,
2013-02-08 19:45:00,6.7,3.9,30.30,NE,42,0.0,0.0,88,0.00,,SKC,0.00,VWS V14.01,2013-02-09 01:45:00,
2013-02-08 19:46:00,8.8,5.7,30.30,NE,42,0.0,0.0,87,0.00,,SKC,0.00,VWS V14.01,2013-02-09 01:46:00,
2013-02-08 19:50:00,6.6,3.8,30.30,NE,42,0.0,0.0,88,0.00,,SKC,0.00,VWS V14.01,2013-02-09 01:50:00,
2013-02-08 19:51:00,8.5,5.4,30.30,NE,42,0.0,0.0,87,0.00,,SKC,0.00,VWS V14.01,2013-02-09 01:51:00,
2013-02-08 19:55:00,6.6,3.8,30.30,NE,43,0.0,0.0,88,0.00,,SKC,0.00,VWS V14.01,2013-02-09 01:55:00,
2013-02-08 19:56:00,8.4,5.6,30.30,NE,42,0.0,0.0,88,0.00,,SKC,0.00,VWS V14.01,2013-02-09 01:56:00,
2013-02-08 20:00:00,6.3,3.3,30.30,NE,42,0.0,0.0,87,0.00,,SKC,0.00,VWS V14.01,2013-02-09 02:00:00,
2013-02-08 20:01:00,8.3,5.5,30.30,NE,42,0.0,0.0,88,0.00,,SKC,0.00,VWS V14.01,2013-02-09 02:01:00,
2013-02-08 20:05:00,6.2,3.2,30.30,NE,43,0.0,0.0,87,0.00,,SKC,0.00,VWS V14.01,2013-02-09 02:05:00,
2013-02-08 20:06:00,8.1,5.3,30.30,NE,43,0.0,0.0,88,0.00,,SKC,0.00,VWS V14.01,2013-02-09 02:06:00,
2013-02-08 20:10:00,5.9,2.9,30.30,NE,42,0.0,0.0,87,0.00,,SKC,0.00,VWS V14.01,2013-02-09 02:10:00,
2013-02-08 20:11:00,7.9,5.1,30.30,NE,42,0.0,0.0,88,0.00,,SKC,0.00,VWS V14.01,2013-02-09 02:11:00,
2013-02-08 20:15:00,5.9,3.1,30.31,NE,43,0.0,0.0,88,0.00,,SKC,0.00,VWS V14.01,2013-02-09 02:15:00,
2013-02-08 20:16:00,7.8,5.2,30.30,NE,42,0.0,0.0,89,0.00,,SKC,0.00,VWS V14.01,2013-02-09 02:16:00,
2013-02-08 20:20:00,6.1,3.6,30.31,NE,42,0.0,0.0,89,0.00,,SKC,0.00,VWS V14.01,2013-02-09 02:20:00,
2013-02-08 20:21:00,7.6,5.0,30.30,NE,42,0.0,0.0,89,0.00,,SKC,0.00,VWS V14.01,2013-02-09 02:21:00,
2013-02-08 20:25:00,6.1,3.6,30.31,NE,42,0.0,0.0,89,0.00,,SKC,0.00,VWS V14.01,2013-02-09 02:25:00,
2013-02-08 20:26:00,7.4,4.6,30.30,NE,42,0.0,0.0,88,0.00,,SKC,0.00,VWS V14.01,2013-02-09 02:26:00,
2013-02-08 20:30:00,6.1,3.3,30.31,NE,42,0.0,0.0,88,0.00,,SKC,0.00,VWS V14.01,2013-02-09 02:30:00,
2013-02-08 20:31:00,7.2,4.4,30.30,NE,42,0.0,0.0,88,0.00,,SKC,0.00,VWS V14.01,2013-02-09 02:31:00,
2013-02-08 20:35:00,6.1,3.3,30.31,NE,42,0.0,0.0,88,0.00,,SKC,0.00,VWS V14.01,2013-02-09 02:35:00,
2013-02-08 20:36:00,6.9,4.1,30.30,NE,42,0.0,0.0,88,0.00,,SKC,0.00,VWS V14.01,2013-02-09 02:36:00,
2013-02-08 20:40:00,6.2,3.4,30.31,NE,42,0.0,0.0,88,0.00,,SKC,0.00,VWS V14.01,2013-02-09 02:40:00,
2013-02-08 20:41:00,6.8,4.0,30.30,NE,43,0.0,0.0,88,0.00,,SKC,0.00,VWS V14.01,2013-02-09 02:41:00,
2013-02-08 20:45:00,6.2,3.4,30.31,NE,42,0.0,0.0,88,0.00,,SKC,0.00,VWS V14.01,2013-02-09 02:45:00,
2013-02-08 20:46:00,6.7,3.9,30.30,NE,43,0.0,0.0,88,0.00,,SKC,0.00,VWS V14.01,2013-02-09 02:46:00,
2013-02-08 20:50:00,6.2,3.4,30.31,NE,43,0.0,0.0,88,0.00,,SKC,0.00,VWS V14.01,2013-02-09 02:50:00,
2013-02-08 20:51:00,6.6,3.8,30.30,NE,42,0.0,0.0,88,0.00,,SKC,0.00,VWS V14.01,2013-02-09 02:51:00,
2013-02-08 20:55:00,6.1,3.3,30.31,NE,42,0.0,0.0,88,0.00,,SKC,0.00,VWS V14.01,2013-02-09 02:55:00,
2013-02-08 20:56:00,6.6,3.8,30.30,NE,42,0.0,0.0,88,0.00,,SKC,0.00,VWS V14.01,2013-02-09 02:56:00,
2013-02-08 21:00:00,6.3,3.5,30.31,NE,42,0.0,0.0,88,0.00,,SKC,0.00,VWS V14.01,2013-02-09 03:00:00,
2013-02-08 21:01:00,6.4,3.6,30.30,NE,42,0.0,0.0,88,0.00,,SKC,0.00,VWS V14.01,2013-02-09 03:01:00,
2013-02-08 21:05:00,6.5,3.7,30.31,NE,43,0.0,0.0,88,0.00,,SKC,0.00,VWS V14.01,2013-02-09 03:05:00,
2013-02-08 21:06:00,6.2,3.2,30.30,NE,43,0.0,0.0,87,0.00,,SKC,0.00,VWS V14.01,2013-02-09 03:06:00,
2013-02-08 21:10:00,6.7,4.2,30.31,NE,42,0.0,1.0,89,0.00,,SKC,0.00,VWS V14.01,2013-02-09 03:10:00,
2013-02-08 21:11:00,6.0,3.0,30.30,NE,43,0.0,0.0,87,0.00,,SKC,0.00,VWS V14.01,2013-02-09 03:11:00,
2013-02-08 21:15:00,6.7,3.9,30.30,NE,43,0.0,0.0,88,0.00,,SKC,0.00,VWS V14.01,2013-02-09 03:15:00,
2013-02-08 21:16:00,5.9,3.1,30.31,NE,43,0.0,0.0,88,0.00,,SKC,0.00,VWS V14.01,2013-02-09 03:16:00,
2013-02-08 21:20:00,6.6,3.6,30.30,NE,42,0.0,0.0,87,0.00,,SKC,0.00,VWS V14.01,2013-02-09 03:20:00,
2013-02-08 21:21:00,6.1,3.6,30.31,NE,42,0.0,0.0,89,0.00,,SKC,0.00,VWS V14.01,2013-02-09 03:21:00,
2013-02-08 21:25:00,6.2,3.2,30.30,NE,42,0.0,0.0,87,0.00,,SKC,0.00,VWS V14.01,2013-02-09 03:25:00,
2013-02-08 21:26:00,6.1,3.6,30.31,NE,42,0.0,0.0,89,0.00,,SKC,0.00,VWS V14.01,2013-02-09 03:26:00,
2013-02-08 21:30:00,6.1,3.1,30.30,NE,42,0.0,0.0,87,0.00,,SKC,0.00,VWS V14.01,2013-02-09 03:30:00,
2013-02-08 21:31:00,6.1,3.3,30.31,NE,43,0.0,0.0,88,0.00,,SKC,0.00,VWS V14.01,2013-02-09 03:31:00,
2013-02-08 21:35:00,5.9,2.9,30.30,NE,42,0.0,0.0,87,0.00,,SKC,0.00,VWS V14.01,2013-02-09 03:35:00,
2013-02-08 21:36:00,6.1,3.3,30.31,NE,42,0.0,0.0,88,0.00,,SKC,0.00,VWS V14.01,2013-02-09 03:36:00,
2013-02-08 21:40:00,5.7,2.7,30.30,NE,42,0.0,0.0,87,0.00,,SKC,0.00,VWS V14.01,2013-02-09 03:40:00,
2013-02-08 21:41:00,6.2,3.4,30.31,NE,43,0.0,0.0,88,0.00,,SKC,0.00,VWS V14.01,2013-02-09 03:41:00,
2013-02-08 21:45:00,5.6,2.8,30.29,NE,43,0.0,0.0,88,0.00,,SKC,0.00,VWS V14.01,2013-02-09 03:45:00,
2013-02-08 21:46:00,6.2,3.4,30.31,NE,43,0.0,0.0,88,0.00,,SKC,0.00,VWS V14.01,2013-02-09 03:46:00,
2013-02-08 21:50:00,5.5,2.7,30.29,NE,42,0.0,0.0,88,0.00,,SKC,0.00,VWS V14.01,2013-02-09 03:50:00,
2013-02-08 21:51:00,6.1,3.3,30.31,NE,42,0.0,0.0,88,0.00,,SKC,0.00,VWS V14.01,2013-02-09 03:51:00,
2013-02-08 21:55:00,5.2,2.4,30.29,NE,42,0.0,0.0,88,0.00,,SKC,0.00,VWS V14.01,2013-02-09 03:55:00,
2013-02-08 21:56:00,6.1,3.3,30.31,NE,43,0.0,0.0,88,0.00,,SKC,0.00,VWS V14.01,2013-02-09 03:56:00,
2013-02-08 22:00:00,5.1,2.3,30.29,NE,42,0.0,0.0,88,0.00,,SKC,0.00,VWS V14.01,2013-02-09 04:00:00,
2013-02-08 22:01:00,6.3,3.5,30.31,NE,42,0.0,0.0,88,0.00,,SKC,0.00,VWS V14.01,2013-02-09 04:01:00,
2013-02-08 22:05:00,4.9,2.1,30.29,NE,42,0.0,0.0,88,0.00,,SKC,0.00,VWS V14.01,2013-02-09 04:05:00,
2013-02-08 22:06:00,6.5,3.7,30.31,NE,42,0.0,0.0,88,0.00,,SKC,0.00,VWS V14.01,2013-02-09 04:06:00,
2013-02-08 22:10:00,4.8,2.3,30.29,NE,42,0.0,0.0,89,0.00,,SKC,0.00,VWS V14.01,2013-02-09 04:10:00,
2013-02-08 22:11:00,6.7,4.2,30.31,NE,42,0.0,1.0,89,0.00,,SKC,0.00,VWS V14.01,2013-02-09 04:11:00,
2013-02-08 22:15:00,4.8,2.3,30.29,NE,42,0.0,0.0,89,0.00,,SKC,0.00,VWS V14.01,2013-02-09 04:15:00,
2013-02-08 22:16:00,6.8,4.0,30.30,NE,43,0.0,0.0,88,0.00,,SKC,0.00,VWS V14.01,2013-02-09 04:16:00,
2013-02-08 22:20:00,4.8,2.3,30.29,NE,42,0.0,0.0,89,0.00,,SKC,0.00,VWS V14.01,2013-02-09 04:20:00,
2013-02-08 22:22:00,6.6,3.8,30.30,NE,42,0.0,0.0,88,0.00,,SKC,0.00,VWS V14.01,2013-02-09 04:22:00,
2013-02-08 22:25:00,4.7,2.2,30.29,NE,42,0.0,0.0,89,0.00,,SKC,0.00,VWS V14.01,2013-02-09 04:25:00,
2013-02-08 22:27:00,6.2,3.2,30.30,NE,42,0.0,0.0,87,0.00,,SKC,0.00,VWS V14.01,2013-02-09 04:27:00,
2013-02-08 22:30:00,4.5,2.0,30.30,NE,43,0.0,0.0,89,0.00,,SKC,0.00,VWS V14.01,2013-02-09 04:30:00,
2013-02-08 22:32:00,6.1,3.1,30.30,NE,43,0.0,0.0,87,0.00,,SKC,0.00,VWS V14.01,2013-02-09 04:32:00,
2013-02-08 22:35:00,4.5,2.0,30.30,NE,42,0.0,0.0,89,0.00,,SKC,0.00,VWS V14.01,2013-02-09 04:35:00,
2013-02-08 22:37:00,5.9,2.9,30.30,NE,43,0.0,0.0,87,0.00,,SKC,0.00,VWS V14.01,2013-02-09 04:37:00,
2013-02-08 22:40:00,4.3,1.8,30.30,NE,42,0.0,0.0,89,0.00,,SKC,0.00,VWS V14.01,2013-02-09 04:40:00,
2013-02-08 22:42:00,5.7,2.7,30.30,NE,42,0.0,0.0,87,0.00,,SKC,0.00,VWS V14.01,2013-02-09 04:42:00,
2013-02-08 22:45:00,4.2,1.7,30.30,NE,43,0.0,0.0,89,0.00,,SKC,0.00,VWS V14.01,2013-02-09 04:45:00,
2013-02-08 22:47:00,5.6,2.8,30.29,NE,43,0.0,0.0,88,0.00,,SKC,0.00,VWS V14.01,2013-02-09 04:47:00,
2013-02-08 22:50:00,3.9,1.4,30.30,NE,43,0.0,0.0,89,0.00,,SKC,0.00,VWS V14.01,2013-02-09 04:50:00,
2013-02-08 22:52:00,5.5,2.7,30.29,NE,43,0.0,0.0,88,0.00,,SKC,0.00,VWS V14.01,2013-02-09 04:52:00,
2013-02-08 22:55:00,3.7,1.2,30.30,NE,43,0.0,0.0,89,0.00,,SKC,0.00,VWS V14.01,2013-02-09 04:55:00,
2013-02-08 22:57:00,5.2,2.4,30.29,NE,42,0.0,0.0,88,0.00,,SKC,0.00,VWS V14.01,2013-02-09 04:57:00,
2013-02-08 23:00:00,5.1,2.3,30.29,NE,42,0.0,0.0,88,0.00,,SKC,0.00,VWS V14.01,2013-02-09 05:00:00,
2013-02-08 23:01:00,5.1,2.3,30.29,NE,43,0.0,0.0,88,0.00,,SKC,0.00,VWS V14.01,2013-02-09 05:01:00,
2013-02-08 23:05:00,4.4,2.1,30.29,NE,43,0.0,0.0,90,0.00,,SKC,0.00,VWS V14.01,2013-02-09 05:05:00,
2013-02-08 23:06:00,4.9,2.1,30.29,NE,43,0.0,0.0,88,0.00,,SKC,0.00,VWS V14.01,2013-02-09 05:06:00,
2013-02-08 23:10:00,4.4,2.1,30.29,NE,43,0.0,0.0,90,0.00,,SKC,0.00,VWS V14.01,2013-02-09 05:10:00,
2013-02-08 23:11:00,4.8,2.3,30.29,NE,42,0.0,0.0,89,0.00,,SKC,0.00,VWS V14.01,2013-02-09 05:11:00,
2013-02-08 23:15:00,4.1,1.8,30.29,NE,43,0.0,0.0,90,0.00,,SKC,0.00,VWS V14.01,2013-02-09 05:15:00,
2013-02-08 23:16:00,4.8,2.3,30.29,NE,42,0.0,0.0,89,0.00,,SKC,0.00,VWS V14.01,2013-02-09 05:16:00,
2013-02-08 23:20:00,3.7,1.2,30.29,NE,42,0.0,0.0,89,0.00,,SKC,0.00,VWS V14.01,2013-02-09 05:20:00,
2013-02-08 23:21:00,4.8,2.5,30.29,NE,42,0.0,0.0,90,0.00,,SKC,0.00,VWS V14.01,2013-02-09 05:21:00,
2013-02-08 23:25:00,3.3,0.6,30.29,NE,42,0.0,0.0,88,0.00,,SKC,0.00,VWS V14.01,2013-02-09 05:25:00,
2013-02-08 23:26:00,4.7,2.2,30.29,NE,43,0.0,0.0,89,0.00,,SKC,0.00,VWS V14.01,2013-02-09 05:26:00,
2013-02-08 23:30:00,2.8,0.1,30.30,NE,43,0.0,0.0,88,0.00,,SKC,0.00,VWS V14.01,2013-02-09 05:30:00,
2013-02-08 23:31:00,4.5,2.0,30.29,NE,43,0.0,0.0,89,0.00,,SKC,0.00,VWS V14.01,2013-02-09 05:31:00,
2013-02-08 23:35:00,2.5,-0.2,30.30,NE,42,0.0,0.0,88,0.00,,SKC,0.00,VWS V14.01,2013-02-09 05:35:00,
2013-02-08 23:36:00,4.5,2.0,30.30,NE,42,0.0,0.0,89,0.00,,SKC,0.00,VWS V14.01,2013-02-09 05:36:00,
2013-02-08 23:40:00,2.6,0.1,30.30,NE,42,0.0,0.0,89,0.00,,SKC,0.00,VWS V14.01,2013-02-09 05:40:00,
2013-02-08 23:41:00,4.4,1.9,30.30,NE,43,0.0,0.0,89,0.00,,SKC,0.00,VWS V14.01,2013-02-09 05:41:00,
2013-02-08 23:45:00,2.9,0.6,30.30,NE,42,0.0,0.0,90,0.00,,SKC,0.00,VWS V14.01,2013-02-09 05:45:00,
2013-02-08 23:46:00,4.2,1.7,30.30,NE,42,0.0,0.0,89,0.00,,SKC,0.00,VWS V14.01,2013-02-09 05:46:00,
2013-02-08 23:50:00,2.8,0.5,30.30,NE,42,0.0,0.0,90,0.00,,SKC,0.00,VWS V14.01,2013-02-09 05:50:00,
2013-02-08 23:51:00,3.9,1.4,30.30,NE,42,0.0,0.0,89,0.00,,SKC,0.00,VWS V14.01,2013-02-09 05:51:00,
2013-02-08 23:55:00,2.3,-0.4,30.30,NE,42,0.0,0.0,88,0.00,,SKC,0.00,VWS V14.01,2013-02-09 05:55:00,
2013-02-08 23:56:00,3.8,1.3,30.30,NE,42,0.0,0.0,89,0.00,,SKC,0.00,VWS V14.01,2013-02-09 05:56:00,